Pittsburgh Allegheny Co., PA

10:55 AM EDT on September 21, 2017 (GMT -0400)
Allegheny County

Weather History for KAGC - January, 2014

Change the Weather History Date:

Tuesday, January 14, 2014

  Actual Average Record
Temperature  
Mean Temperature 42 °F -  
Max Temperature 46 °F 41 °F 57 °F (2013)
Min Temperature 37 °F 21 °F 8 °F (1988)
Degree Days  
Heating Degree Days 24    
Moisture  
Dew Point 38 °F    
Average Humidity 82    
Maximum Humidity 93    
Minimum Humidity 67    
Precipitation  
Precipitation 0.12 in - - ()
Sea Level Pressure  
Sea Level Pressure 29.77 in    
Wind  
Wind Speed 8 mph (WSW)    
Max Wind Speed 14 mph    
Max Gust Speed 20 mph    
Visibility 7 miles    
Events Rain    
Averages and records for this station are not official NWS values.
T = Trace of Precipitation, MM = Missing Value Source: NWS Daily Summary

Daily Weather History Graph

Daily Weather History Graph

Search for Another Location

Airport or City:

Trip Planner

Search our weather history database for the weather conditions in past years. The results will help you decide how hot, cold, wet, or windy it might be!

Date:

Astronomy

Jan. 14, 2014 Rise Set
Actual Time 7:41 AM EST 5:16 PM EST
Civil Twilight 7:11 AM EST 5:46 PM EST
Nautical Twilight 6:37 AM EST 6:20 PM EST
Astronomical Twilight 6:04 AM EST 6:53 PM EST
Moon 4:20 PM EST (1/14) 6:14 AM EST (1/14)
Length of Visible Light 10h 35m
Length of Day
9h 35m
Waxing Gibbous, 98% of the Moon is Illuminated
Jan 14
Waxing Gibbous
Jan 15
Full
Jan 24
Last Quarter
Jan 30
New
Feb 6
First Quarter

Hourly Weather History & Observations

Time (EST) Temp. Windchill Dew Point Humidity Pressure Visibility Wind Dir Wind Speed Gust Speed Precip Events Conditions
12:20 AM 46.4 °F 41.1 °F 44.6 °F 93% 29.70 in 10.0 mi SSW 11.5 mph - 0.00 in Rain Light Rain
12:53 AM 46.9 °F - 44.1 °F 90% 29.72 in 10.0 mi SSW 10.4 mph - 0.00 in Rain Light Rain
1:53 AM 46.9 °F - 43.0 °F 86% 29.71 in 10.0 mi SSW 13.8 mph - 0.01 in Rain Light Rain
2:53 AM 46.9 °F - 43.0 °F 86% 29.72 in 10.0 mi SSW 8.1 mph - 0.00 in   Overcast
3:40 AM 46.4 °F 41.1 °F 42.8 °F 87% 29.69 in 9.0 mi SSW 11.5 mph - 0.01 in   Overcast
3:53 AM 46.0 °F 41.4 °F 43.0 °F 89% 29.72 in 5.0 mi SSW 9.2 mph - 0.01 in Rain Light Rain
4:53 AM 46.0 °F 43.1 °F 43.0 °F 89% 29.72 in 6.0 mi NW 5.8 mph 19.6 mph 0.03 in Rain Light Rain
5:19 AM 44.6 °F 43.1 °F 42.8 °F 93% 29.70 in 9.0 mi WNW 3.5 mph - 0.01 in Rain Light Rain
5:30 AM 44.6 °F 42.2 °F 42.8 °F 93% 29.70 in 10.0 mi West 4.6 mph - 0.01 in Rain Light Rain
5:53 AM 45.0 °F 42.6 °F 41.0 °F 86% 29.73 in 10.0 mi West 4.6 mph - 0.01 in Rain Light Rain
6:53 AM 44.1 °F 41.5 °F 42.1 °F 93% 29.74 in 5.0 mi WSW 4.6 mph - 0.01 in Rain Light Rain
7:16 AM 44.6 °F 42.2 °F 42.8 °F 93% 29.73 in 4.0 mi SW 4.6 mph - 0.01 in Rain Light Rain
7:53 AM 44.1 °F 41.5 °F 42.1 °F 93% 29.77 in 2.0 mi West 4.6 mph - 0.03 in Rain Light Rain
8:00 AM 44.6 °F - 42.8 °F 93% 29.73 in 3.0 mi Calm Calm - 0.01 in Rain Light Rain
8:33 AM 44.6 °F 42.2 °F 42.8 °F 93% 29.75 in 4.0 mi WSW 4.6 mph - 0.01 in Rain Light Rain
8:53 AM 44.1 °F 40.1 °F 41.0 °F 89% 29.78 in 4.0 mi West 6.9 mph - 0.01 in   Overcast
9:10 AM 44.6 °F 42.2 °F 41.0 °F 87% 29.76 in 4.0 mi West 4.6 mph - 0.00 in Rain Light Rain
9:53 AM 43.0 °F 40.3 °F 39.9 °F 89% 29.79 in 4.0 mi NNW 4.6 mph - 0.00 in   Overcast
10:00 AM 42.8 °F 38.6 °F 39.2 °F 87% 29.77 in 2.5 mi NNW 6.9 mph - 0.01 in   Overcast
10:08 AM 42.8 °F 39.3 °F 39.2 °F 87% 29.77 in 5.0 mi NW 5.8 mph - 0.01 in   Overcast
10:21 AM 42.8 °F 38.0 °F 37.4 °F 81% 29.78 in 6.0 mi NW 8.1 mph - 0.01 in   Overcast
10:42 AM 42.8 °F 39.3 °F 37.4 °F 81% 29.77 in 6.0 mi NW 5.8 mph - 0.01 in   Overcast
10:53 AM 43.0 °F 40.3 °F 37.9 °F 82% 29.81 in 5.0 mi NW 4.6 mph - 0.01 in   Haze
11:07 AM 42.8 °F 39.3 °F 37.4 °F 81% 29.77 in 5.0 mi WNW 5.8 mph - N/A   Haze
11:23 AM 42.8 °F 39.3 °F 37.4 °F 81% 29.76 in 5.0 mi Variable 5.8 mph - N/A   Haze
11:53 AM 43.0 °F 39.5 °F 37.9 °F 82% 29.79 in 6.0 mi West 5.8 mph - N/A   Haze
12:43 PM 42.8 °F 38.6 °F 37.4 °F 81% 29.73 in 7.0 mi Variable 6.9 mph - N/A   Overcast
12:53 PM 42.1 °F 37.7 °F 36.0 °F 79% 29.77 in 7.0 mi West 6.9 mph - N/A   Overcast
1:53 PM 42.1 °F 36.1 °F 34.0 °F 73% 29.77 in 10.0 mi West 10.4 mph 16.1 mph N/A   Overcast
2:53 PM 42.1 °F 37.1 °F 32.0 °F 67% 29.79 in 10.0 mi WNW 8.1 mph - N/A   Overcast
3:53 PM 41.0 °F 36.4 °F 30.9 °F 67% 29.82 in 10.0 mi West 6.9 mph - N/A   Scattered Clouds
4:53 PM 41.0 °F 38.0 °F 30.9 °F 67% 29.82 in 10.0 mi SSW 4.6 mph - N/A   Clear
5:53 PM 39.9 °F 36.7 °F 30.9 °F 70% 29.83 in 10.0 mi SW 4.6 mph - N/A   Clear
6:53 PM 39.0 °F 34.0 °F 30.0 °F 70% 29.85 in 10.0 mi SSW 6.9 mph - N/A   Clear
7:53 PM 37.0 °F 32.4 °F 28.9 °F 73% 29.85 in 10.0 mi South 5.8 mph - N/A   Clear
8:53 PM 37.0 °F 32.4 °F 28.0 °F 70% 29.85 in 10.0 mi South 5.8 mph - N/A   Clear
9:53 PM 37.9 °F 31.5 °F 28.0 °F 68% 29.84 in 10.0 mi South 9.2 mph - N/A   Scattered Clouds
10:53 PM 37.9 °F 31.5 °F 28.9 °F 70% 29.83 in 10.0 mi South 9.2 mph - N/A   Clear
11:53 PM 39.0 °F 32.8 °F 28.9 °F 67% 29.83 in 10.0 mi South 9.2 mph - N/A   Overcast